N1OTX Weather Reports


Display with metric or nautical units.
time (UTC)temp
F
wind
direction
speed
MPH
gust
MPH
rain 1hr
in
rain 24hr
in
rain mn
in
humidity
%
barometer
mb
20210619035017 71 225 2.0 8.0 0.00 0.00 0.00 55 1009.5
20210619034517 71 203 3.0 11.0 0.00 0.00 0.00 54 1009.5
20210619034017 71 203 3.0 6.0 0.00 0.00 0.00 54 1009.5
20210619033517 71 180 1.0 6.0 0.00 0.00 0.00 55 1009.6
20210619033017 72 180 3.0 6.0 0.00 0.00 0.00 55 1009.5
20210619032517 72 180 2.0 5.0 0.00 0.00 0.00 54 1009.6
20210619032016 72 225 3.0 6.0 0.00 0.00 0.00 54 1009.6
20210619031517 72 180 2.0 7.0 0.00 0.00 0.00 54 1009.7
20210619031017 72 203 2.0 5.0 0.00 0.00 0.00 54 1009.7
20210619030517 72 225 2.0 6.0 0.00 0.00 0.00 55 1009.7
20210619030017 72 203 2.0 6.0 0.00 0.00 0.00 54 1009.9
20210619025517 72 225 2.0 6.0 0.00 0.00 0.00 54 1009.9
20210619025017 72 225 2.0 5.0 0.00 0.00 0.00 54 1009.9
20210619024517 72 225 3.0 8.0 0.00 0.00 0.00 54 1009.8
20210619024016 72 180 3.0 8.0 0.00 0.00 0.00 54 1009.9
20210619023516 72 203 3.0 8.0 0.00 0.00 0.00 54 1010.0
20210619023017 72 203 2.0 5.0 0.00 0.00 0.00 55 1009.9
20210619022516 72 180 3.0 8.0 0.00 0.00 0.00 54 1010.0
20210619022016 73 203 3.0 7.0 0.00 0.00 0.00 55 1009.9
20210619021517 73 180 4.0 8.0 0.00 0.00 0.00 54 1009.9
20210619021017 73 203 4.0 8.0 0.00 0.00 0.00 54 1010.0
20210619020517 73 180 3.0 10.0 0.00 0.00 0.00 54 1010.1
20210619020017 73 203 4.0 8.0 0.00 0.00 0.00 54 1010.1
20210619015516 73 203 3.0 6.0 0.00 0.00 0.00 54 1010.1
20210619015016 73 203 5.0 12.0 0.00 0.00 0.00 54 1010.0
20210619014516 73 203 4.0 8.0 0.00 0.00 0.00 54 1010.0
20210619014016 73 225 5.0 9.0 0.00 0.00 0.00 54 1009.9
20210619013516 74 203 3.0 9.0 0.00 0.00 0.00 53 1009.9
20210619013016 74 203 3.0 8.0 0.00 0.00 0.00 52 1009.8
20210619012516 74 203 5.0 11.0 0.00 0.00 0.00 52 1009.7
20210619012016 74 180 3.0 8.0 0.00 0.00 0.00 52 1009.9
20210619011517 74 203 5.0 10.0 0.00 0.00 0.00 51 1009.9
20210619011016 74 203 2.0 8.0 0.00 0.00 0.00 51 1009.9
20210619010517 75 203 3.0 9.0 0.00 0.00 0.00 49 1009.8
20210619010017 75 203 4.0 8.0 0.00 0.00 0.00 49 1009.8
20210619005516 75 203 3.0 9.0 0.00 0.00 0.00 49 1009.9
20210619005016 75 180 5.0 8.0 0.00 0.00 0.00 48 1009.8
20210619004516 75 180 3.0 7.0 0.00 0.00 0.00 47 1010.0
20210619004016 75 203 3.0 9.0 0.00 0.00 0.00 46 1010.0
20210619003516 76 203 4.0 11.0 0.00 0.00 0.00 46 1009.9
20210619003016 76 203 3.0 8.0 0.00 0.00 0.00 46 1009.9
20210619002517 76 203 4.0 9.0 0.00 0.00 0.00 45 1009.9
20210619002017 76 180 4.0 8.0 0.00 0.00 0.00 45 1009.9
20210619001516 76 203 5.0 12.0 0.00 0.00 0.00 45 1010.0
20210619001016 76 203 5.0 13.0 0.00 0.00 0.00 45 1010.1
20210619000516 77 203 5.0 15.0 0.00 0.00 0.00 45 1010.0
20210619000016 77 203 5.0 14.0 0.00 0.00 0.00 44 1010.1
20210618235516 77 203 3.0 8.0 0.00 0.00 0.00 44 1010.0
20210618235016 77 203 4.0 10.0 0.00 0.00 0.00 44 1010.1
20210618234516 77 203 5.0 11.0 0.00 0.00 0.00 44 1010.0
20210618234016 77 203 4.0 8.0 0.00 0.00 0.00 44 1010.0
20210618233516 77 203 3.0 7.0 0.00 0.00 0.00 43 1009.9
20210618233016 77 180 3.0 7.0 0.00 0.00 0.00 43 1009.9
20210618232516 77 180 5.0 11.0 0.00 0.00 0.00 43 1009.9
20210618232016 77 180 3.0 10.0 0.00 0.00 0.00 43 1009.9
20210618231517 77 203 4.0 10.0 0.00 0.00 0.00 43 1010.0
20210618231016 78 203 5.0 10.0 0.00 0.00 0.00 43 1010.0
20210618230516 78 203 5.0 9.0 0.00 0.00 0.00 43 1010.1
20210618230016 78 180 4.0 7.0 0.00 0.00 0.00 43 1010.1
20210618225516 78 203 5.0 8.0 0.00 0.00 0.00 44 1010.1
20210618225016 78 180 3.0 8.0 0.00 0.00 0.00 43 1010.1
20210618224516 78 180 2.0 8.0 0.00 0.00 0.00 43 1010.2
20210618224016 78 203 2.0 5.0 0.00 0.00 0.00 44 1010.3
20210618223516 77 180 2.0 4.0 0.00 0.00 0.00 45 1010.3
20210618223016 78 180 2.0 5.0 0.00 0.00 0.00 46 1010.3
20210618222516 78 248 1.0 4.0 0.00 0.00 0.00 45 1010.3
20210618222016 79 180 3.0 9.0 0.00 0.00 0.00 43 1010.4
20210618221516 79 225 2.0 5.0 0.00 0.00 0.00 46 1010.5
20210618221016 79 225 3.0 5.0 0.00 0.00 0.00 41 1010.5
20210618220516 79 248 1.0 3.0 0.00 0.00 0.00 43 1010.6
20210618220016 80 225 3.0 11.0 0.00 0.00 0.00 40 1010.6
20210618215516 80 180 3.0 7.0 0.00 0.00 0.00 40 1010.6
20210618215016 80 203 4.0 7.0 0.00 0.00 0.00 40 1010.6
20210618214516 80 180 2.0 6.0 0.00 0.00 0.00 40 1010.6
20210618214016 80 203 4.0 9.0 0.00 0.00 0.00 38 1010.7
20210618213516 80 203 4.0 10.0 0.00 0.00 0.00 39 1010.7
20210618213016 80 180 3.0 8.0 0.00 0.00 0.00 39 1010.7
20210618212516 80 45 3.0 12.0 0.00 0.00 0.00 39 1010.8
20210618212016 80 203 4.0 11.0 0.00 0.00 0.00 39 1011.0
20210618211516 80 338 2.0 6.0 0.00 0.00 0.00 39 1010.9
20210618211016 80 225 2.0 6.0 0.00 0.00 0.00 38 1011.0
20210618210516 81 180 3.0 7.0 0.00 0.00 0.00 39 1011.0
20210618210016 81 180 4.0 9.0 0.00 0.00 0.00 36 1011.0
20210618205516 81 180 5.0 10.0 0.00 0.00 0.00 36 1010.9
20210618205016 81 338 4.0 12.0 0.00 0.00 0.00 40 1010.9
20210618204516 81 315 3.0 8.0 0.00 0.00 0.00 37 1010.9
20210618204016 81 158 2.0 7.0 0.00 0.00 0.00 35 1010.9
20210618203516 82 203 2.0 5.0 0.00 0.00 0.00 36 1011.1
20210618203016 81 225 4.0 11.0 0.00 0.00 0.00 37 1011.3
20210618202516 81 203 3.0 8.0 0.00 0.00 0.00 37 1011.3
20210618202016 81 225 3.0 9.0 0.00 0.00 0.00 38 1011.4
20210618201516 81 338 2.0 8.0 0.00 0.00 0.00 36 1011.5
20210618201016 81 225 4.0 9.0 0.00 0.00 0.00 36 1011.4
20210618200516 81 203 5.0 11.0 0.00 0.00 0.00 36 1011.4
20210618200016 81 315 3.0 9.0 0.00 0.00 0.00 39 1011.5
20210618195516 81 293 2.0 4.0 0.00 0.00 0.00 39 1011.5
20210618195016 82 225 5.0 15.0 0.00 0.00 0.00 37 1011.5
20210618194516 82 203 4.0 9.0 0.00 0.00 0.00 38 1011.6
20210618194016 82 225 3.0 6.0 0.00 0.00 0.00 36 1011.6
20210618193516 81 180 5.0 11.0 0.00 0.00 0.00 40 1011.7
20210618193016 81 203 7.0 13.0 0.00 0.00 0.00 36 1011.9
20210618192516 81 225 5.0 14.0 0.00 0.00 0.00 36 1012.0
20210618192016 81 180 4.0 10.0 0.00 0.00 0.00 39 1012.1
20210618191516 81 180 4.0 11.0 0.00 0.00 0.00 39 1012.2
20210618191016 81 203 4.0 11.0 0.00 0.00 0.00 39 1012.3
20210618190516 80 180 3.0 9.0 0.00 0.00 0.00 38 1012.3
20210618190016 80 203 4.0 9.0 0.00 0.00 0.00 38 1012.4
20210618185516 80 203 2.0 7.0 0.00 0.00 0.00 39 1012.5
20210618185016 80 315 3.0 8.0 0.00 0.00 0.00 40 1012.6
20210618184516 81 180 3.0 8.0 0.00 0.00 0.00 37 1012.6
20210618184016 81 180 4.0 10.0 0.00 0.00 0.00 39 1012.6
20210618183516 81 180 7.0 16.0 0.00 0.00 0.00 38 1012.7
20210618183016 81 180 4.0 7.0 0.00 0.00 0.00 39 1012.8
20210618182517 80 0 3.0 8.0 0.00 0.00 0.00 38 1012.9
20210618182016 80 203 4.0 9.0 0.00 0.00 0.00 38 1012.8
20210618181516 81 180 4.0 12.0 0.00 0.00 0.00 41 1012.8
20210618181016 81 225 4.0 7.0 0.00 0.00 0.00 39 1012.8
20210618180516 81 203 2.0 5.0 0.00 0.00 0.00 40 1012.7
20210618180016 81 180 6.0 15.0 0.00 0.00 0.00 39 1012.7
20210618175516 80 203 4.0 11.0 0.00 0.00 0.00 39 1012.8
20210618175016 81 180 4.0 10.0 0.00 0.00 0.00 47 1012.9
20210618174516 80 225 4.0 11.0 0.00 0.00 0.00 40 1013.0
20210618174016 80 180 4.0 9.0 0.00 0.00 0.00 38 1013.0
20210618173516 80 180 3.0 9.0 0.00 0.00 0.00 45 1013.0
20210618173016 79 315 2.0 5.0 0.00 0.00 0.00 40 1013.0
20210618172516 79 203 4.0 14.0 0.00 0.00 0.00 42 1012.9
20210618172016 79 315 2.0 6.0 0.00 0.00 0.00 44 1013.1
20210618171516 79 203 4.0 8.0 0.00 0.00 0.00 38 1013.2
20210618171016 79 180 4.0 8.0 0.00 0.00 0.00 41 1013.2
20210618170516 79 225 3.0 8.0 0.00 0.00 0.00 40 1013.2
20210618170016 79 68 3.0 9.0 0.00 0.00 0.00 41 1013.4
20210618165516 79 203 3.0 9.0 0.00 0.00 0.00 40 1013.4
20210618165016 79 225 4.0 9.0 0.00 0.00 0.00 43 1013.4
20210618164516 79 248 4.0 9.0 0.00 0.00 0.00 41 1013.4
20210618164016 80 203 4.0 11.0 0.00 0.00 0.00 40 1013.5
20210618163516 79 203 3.0 8.0 0.00 0.00 0.00 39 1013.5
20210618163016 78 180 3.0 10.0 0.00 0.00 0.00 41 1013.6
20210618162516 78 180 4.0 10.0 0.00 0.00 0.00 42 1013.8
20210618162016 78 45 2.0 4.0 0.00 0.00 0.00 41 1013.8
20210618161516 77 203 3.0 8.0 0.00 0.00 0.00 38 1013.9
20210618161016 78 203 6.0 13.0 0.00 0.00 0.00 38 1013.9
20210618160516 78 203 5.0 15.0 0.00 0.00 0.00 39 1013.9
20210618160016 78 180 3.0 9.0 0.00 0.00 0.00 44 1013.8
20210618155516 78 180 6.0 12.0 0.00 0.00 0.00 40 1013.8
20210618155016 78 180 4.0 9.0 0.00 0.00 0.00 45 1013.8
20210618154516 77 45 3.0 10.0 0.00 0.00 0.00 43 1013.9
20210618154016 78 203 3.0 9.0 0.00 0.00 0.00 45 1014.1
20210618153516 78 203 3.0 8.0 0.00 0.00 0.00 42 1014.1
20210618153016 78 180 3.0 9.0 0.00 0.00 0.00 39 1014.1
20210618152516 77 180 4.0 12.0 0.00 0.00 0.00 45 1014.1
20210618152016 76 180 3.0 9.0 0.00 0.00 0.00 46 1014.2
20210618151515 77 180 3.0 10.0 0.00 0.00 0.00 44 1014.1
20210618151016 77 203 3.0 6.0 0.00 0.00 0.00 51 1014.1
20210618150516 76 225 3.0 7.0 0.00 0.00 0.00 41 1014.1
20210618150016 77 203 4.0 9.0 0.00 0.00 0.00 40 1014.0
20210618145516 76 203 5.0 10.0 0.00 0.00 0.00 40 1014.0
20210618145016 76 203 3.0 6.0 0.00 0.00 0.00 43 1014.1
20210618144515 75 158 1.0 4.0 0.00 0.00 0.00 46 1014.2
20210618144016 75 180 2.0 8.0 0.00 0.00 0.00 45 1014.2
20210618143515 74 45 1.0 6.0 0.00 0.00 0.00 43 1014.2
20210618143016 75 180 4.0 7.0 0.00 0.00 0.00 49 1014.4
20210618142516 74 45 2.0 3.0 0.00 0.00 0.00 46 1014.4
20210618142016 74 315 2.0 5.0 0.00 0.00 0.00 51 1014.5
20210618141515 74 203 2.0 7.0 0.00 0.00 0.00 47 1014.5
20210618141016 74 203 2.0 4.0 0.00 0.00 0.00 45 1014.5
20210618140516 75 203 3.0 8.0 0.00 0.00 0.00 46 1014.5
20210618140016 74 180 3.0 8.0 0.00 0.00 0.00 48 1014.6
20210618135516 73 225 2.0 7.0 0.00 0.00 0.00 51 1014.7
20210618135016 73 180 2.0 5.0 0.00 0.00 0.00 49 1014.8
20210618134515 72 0 2.0 5.0 0.00 0.00 0.00 49 1014.8
20210618134015 73 180 3.0 7.0 0.00 0.00 0.00 51 1014.9
20210618133515 72 203 2.0 4.0 0.00 0.00 0.00 52 1014.9
20210618133016 72 180 1.0 4.0 0.00 0.00 0.00 51 1014.9
20210618132515 72 203 2.0 5.0 0.00 0.00 0.00 49 1015.0
20210618132016 71 203 2.0 5.0 0.00 0.00 0.00 56 1015.1
20210618131516 71 203 3.0 8.0 0.00 0.00 0.00 57 1015.2
20210618131016 71 203 2.0 5.0 0.00 0.00 0.00 59 1015.2
20210618130516 70 203 2.0 7.0 0.00 0.00 0.00 57 1015.3
20210618130015 70 180 2.0 4.0 0.00 0.00 0.00 58 1015.3
20210618125516 70 225 2.0 5.0 0.00 0.00 0.00 58 1015.3
20210618125015 70 203 2.0 5.0 0.00 0.00 0.00 61 1015.4
20210618124515 68 225 1.0 4.0 0.00 0.00 0.00 61 1015.3
20210618124015 68 293 2.0 6.0 0.00 0.00 0.00 61 1015.4
20210618123515 67 203 1.0 4.0 0.00 0.00 0.00 61 1015.4
20210618123016 66 203 1.0 4.0 0.00 0.00 0.00 63 1015.4
20210618122515 66 338 1.0 4.0 0.00 0.00 0.00 61 1015.2
20210618122015 66 203 3.0 6.0 0.00 0.00 0.00 62 1015.1
20210618121515 65 248 1.0 5.0 0.00 0.00 0.00 66 1015.2
20210618121015 65 180 2.0 5.0 0.00 0.00 0.00 63 1015.4
20210618120515 65 203 3.0 6.0 0.00 0.00 0.00 63 1015.5
20210618120015 65 203 2.0 6.0 0.00 0.00 0.00 62 1015.6
20210618115515 65 225 2.0 7.0 0.00 0.00 0.00 67 1015.7
20210618115015 65 180 2.0 3.0 0.00 0.00 0.00 66 1015.8
20210618114515 65 203 1.0 4.0 0.00 0.00 0.00 65 1015.8
20210618114015 63 203 1.0 3.0 0.00 0.00 0.00 70 1015.7
20210618113515 63 203 2.0 6.0 0.00 0.00 0.00 71 1015.7
20210618113015 62 248 1.0 2.0 0.00 0.00 0.00 71 1015.6
20210618112515 62 0.0 2.0 0.00 0.00 0.00 73 1015.6
20210618112015 61 225 1.0 4.0 0.00 0.00 0.00 73 1015.4
20210618111515 60 0.0 2.0 0.00 0.00 0.00 75 1015.4
20210618111015 60 0.0 1.0 0.00 0.00 0.00 79 1015.4
20210618110515 59 0.0 0.0 0.00 0.00 0.00 80 1015.5
20210618110015 58 0.0 0.0 0.00 0.00 0.00 81 1015.6
20210618105515 57 0.0 0.0 0.00 0.00 0.00 80 1015.5
20210618105015 57 0.0 0.0 0.00 0.00 0.00 84 1015.4
20210618104515 55 0.0 0.0 0.00 0.00 0.00 88 1015.4
20210618104015 54 0.0 0.0 0.00 0.00 0.00 88 1015.4
20210618103515 54 0.0 0.0 0.00 0.00 0.00 88 1015.4
20210618103015 53 0.0 0.0 0.00 0.00 0.00 87 1015.4
20210618102515 52 0.0 0.0 0.00 0.00 0.00 87 1015.4
20210618102015 52 0.0 0.0 0.00 0.00 0.00 87 1015.3
20210618101515 51 0.0 0.0 0.00 0.00 0.00 86 1015.4
20210618101015 51 0.0 0.0 0.00 0.00 0.00 85 1015.3
20210618100515 51 0.0 0.0 0.00 0.00 0.00 84 1015.4
20210618100015 51 0.0 0.0 0.00 0.00 0.00 84 1015.4
20210618095515 51 0.0 0.0 0.00 0.00 0.00 84 1015.3
20210618095015 51 0.0 0.0 0.00 0.00 0.00 84 1015.3
20210618094515 51 0.0 0.0 0.00 0.00 0.00 84 1015.3
20210618094015 51 0.0 0.0 0.00 0.00 0.00 84 1015.3
20210618093515 51 0.0 0.0 0.00 0.00 0.00 84 1015.3
20210618093015 51 0.0 0.0 0.00 0.00 0.00 83 1015.3
20210618092515 51 0.0 0.0 0.00 0.00 0.00 83 1015.2
20210618092015 51 0.0 0.0 0.00 0.00 0.00 83 1015.1
20210618091515 51 0.0 0.0 0.00 0.00 0.00 83 1015.1
20210618091015 51 0.0 0.0 0.00 0.00 0.00 83 1015.1
20210618090515 52 0.0 0.0 0.00 0.00 0.00 83 1015.1
20210618090015 52 0.0 0.0 0.00 0.00 0.00 82 1015.0
20210618085515 52 0.0 0.0 0.00 0.00 0.00 82 1015.1
20210618085015 52 0.0 0.0 0.00 0.00 0.00 82 1015.1
20210618084515 52 0.0 0.0 0.00 0.00 0.00 82 1015.1
20210618084015 52 0.0 0.0 0.00 0.00 0.00 82 1015.2
20210618083515 52 0.0 0.0 0.00 0.00 0.00 82 1015.2
20210618083015 52 0.0 0.0 0.00 0.00 0.00 82 1015.1
20210618082515 52 0.0 0.0 0.00 0.00 0.00 82 1015.1
20210618082015 52 0.0 0.0 0.00 0.00 0.00 82 1015.1
20210618081515 52 0.0 0.0 0.00 0.00 0.00 81 1015.0
20210618081015 53 0.0 0.0 0.00 0.00 0.00 81 1014.9
20210618080515 53 0.0 0.0 0.00 0.00 0.00 81 1014.9
20210618080015 53 0.0 0.0 0.00 0.00 0.00 81 1014.9
20210618075515 53 0.0 0.0 0.00 0.00 0.00 80 1014.8
20210618075015 53 0.0 0.0 0.00 0.00 0.00 80 1014.7
20210618074515 53 0.0 0.0 0.00 0.00 0.00 80 1014.7
20210618074015 53 0.0 0.0 0.00 0.00 0.00 80 1014.6
20210618073515 53 0.0 0.0 0.00 0.00 0.00 80 1014.6
20210618073015 54 0.0 0.0 0.00 0.00 0.00 80 1014.6
20210618072515 54 0.0 0.0 0.00 0.00 0.00 79 1014.7
20210618072015 54 0.0 0.0 0.00 0.00 0.00 79 1014.6
20210618071515 54 0.0 0.0 0.00 0.00 0.00 79 1014.6
20210618071015 54 0.0 0.0 0.00 0.00 0.00 79 1014.6
20210618070515 54 0.0 0.0 0.00 0.00 0.00 78 1014.6
20210618070015 54 0.0 0.0 0.00 0.00 0.00 78 1014.6
20210618065515 55 0.0 0.0 0.00 0.00 0.00 78 1014.5
20210618065015 55 0.0 0.0 0.00 0.00 0.00 78 1014.5
20210618064515 55 0.0 0.0 0.00 0.00 0.00 78 1014.5
20210618064015 55 0.0 0.0 0.00 0.00 0.00 77 1014.4
20210618063515 55 0.0 0.0 0.00 0.00 0.00 77 1014.4
20210618063015 56 0.0 0.0 0.00 0.00 0.00 76 1014.4
20210618062515 56 0.0 0.0 0.00 0.00 0.00 76 1014.3
20210618062015 56 0.0 0.0 0.00 0.00 0.00 76 1014.3
20210618061515 56 0.0 0.0 0.00 0.00 0.00 76 1014.3
20210618061015 56 0.0 0.0 0.00 0.00 0.00 76 1014.4
20210618060515 56 0.0 0.0 0.00 0.00 0.00 75 1014.4
20210618060015 57 0.0 0.0 0.00 0.00 0.00 75 1014.4
20210618055515 57 0.0 0.0 0.00 0.00 0.00 75 1014.4
20210618055015 57 0.0 0.0 0.00 0.00 0.00 75 1014.4
20210618054515 57 0.0 0.0 0.00 0.00 0.00 74 1014.5
20210618054015 57 0.0 0.0 0.00 0.00 0.00 74 1014.5
20210618053515 57 0.0 0.0 0.00 0.00 0.00 75 1014.5
20210618053015 57 0.0 0.0 0.00 0.00 0.00 74 1014.5
20210618052515 57 0.0 0.0 0.00 0.00 0.00 74 1014.5
20210618052017 58 0.0 0.0 0.00 0.00 0.00 74 1014.5
20210618051517 58 0.0 0.0 0.00 0.00 0.00 74 1014.4
20210618051017 58 0.0 0.0 0.00 0.00 0.00 73 1014.4
20210618050517 58 0.0 0.0 0.00 0.00 0.00 73 1014.4
20210618050017 58 0.0 0.0 0.00 0.00 0.00 73 1014.5
20210618045517 58 0.0 0.0 0.00 0.00 0.00 73 1014.5
20210618045017 58 0.0 0.0 0.00 0.00 0.00 72 1014.5
20210618044517 58 0.0 0.0 0.00 0.00 0.00 72 1014.5
20210618044017 58 0.0 0.0 0.00 0.00 0.00 72 1014.5
20210618043517 59 0.0 0.0 0.00 0.00 0.00 72 1014.5
20210618043017 59 0.0 0.0 0.00 0.00 0.00 71 1014.4
20210618042517 59 0.0 0.0 0.00 0.00 0.00 71 1014.4
20210618042017 59 0.0 0.0 0.00 0.00 0.00 71 1014.3
20210618041517 59 0.0 0.0 0.00 0.00 0.00 71 1014.3
20210618041017 59 0.0 0.0 0.00 0.00 0.00 70 1014.3
20210618040517 59 0.0 0.0 0.00 0.00 0.00 70 1014.2
20210618040017 59 0.0 0.0 0.00 0.00 0.00 70 1014.2
20210618035517 60 0.0 0.0 0.00 0.00 0.00 70 1014.2